TimeEST,TemperatureF,Dew PointF,Humidity,Sea Level PressureIn,VisibilityMPH,Wind Direction,Wind SpeedMPH,Gust SpeedMPH,PrecipitationIn,Events,Conditions,WindDirDegrees,DateUTC
12:33 AM,42.8,37.4,81,29.95,10.0,East,13.8,-,0.00,,Overcast,100,2012-12-21 05:33:00
12:56 AM,43.0,37.9,82,29.92,10.0,East,15.0,-,0.00,,Overcast,90,2012-12-21 05:56:00
1:53 AM,44.6,39.2,81,29.85,10.0,East,20.7,26.5,N/A,,Overcast,100,2012-12-21 06:53:00
1:56 AM,44.1,39.0,82,29.85,10.0,ESE,20.7,26.5,N/A,,Overcast,110,2012-12-21 06:56:00
2:56 AM,45.0,39.9,82,29.80,10.0,ESE,19.6,28.8,N/A,,Overcast,110,2012-12-21 07:56:00
3:56 AM,46.0,41.0,83,29.73,9.0,East,20.7,29.9,N/A,,Overcast,100,2012-12-21 08:56:00
4:21 AM,46.4,42.8,87,29.72,8.0,East,21.9,31.1,N/A,,Overcast,100,2012-12-21 09:21:00
4:56 AM,46.9,43.0,86,29.65,8.0,East,26.5,32.2,N/A,,Overcast,100,2012-12-21 09:56:00
5:51 AM,48.2,44.6,87,29.58,7.0,East,25.3,39.1,0.00,Rain,Light Rain,100,2012-12-21 10:51:00
5:56 AM,48.0,44.1,86,29.57,7.0,East,24.2,36.8,0.00,,Overcast,100,2012-12-21 10:56:00
6:04 AM,48.2,44.6,87,29.56,6.0,East,24.2,38.0,0.00,Rain,Light Rain,100,2012-12-21 11:04:00
6:56 AM,48.9,44.1,83,29.51,6.0,East,25.3,36.8,0.00,Rain,Light Rain,100,2012-12-21 11:56:00
7:28 AM,48.2,44.6,87,29.49,4.0,East,27.6,36.8,0.03,Rain,Rain,100,2012-12-21 12:28:00
7:38 AM,48.2,46.4,93,29.46,2.0,East,27.6,40.3,0.07,Rain,Heavy Rain,100,2012-12-21 12:38:00
7:56 AM,48.9,46.9,93,29.44,2.0,East,28.8,43.7,0.15,Rain,Heavy Rain,100,2012-12-21 12:56:00
8:13 AM,48.2,46.4,93,29.42,1.8,East,25.3,36.8,0.07,Rain,Heavy Rain,100,2012-12-21 13:13:00
8:46 AM,51.8,48.2,88,29.36,2.5,ESE,28.8,40.3,0.09,Rain,Light Rain,110,2012-12-21 13:46:00
8:56 AM,51.1,50.0,96,29.36,1.2,ESE,25.3,39.1,0.12,Rain,Rain,120,2012-12-21 13:56:00
9:26 AM,51.8,51.8,100,29.31,2.0,ESE,26.5,40.3,0.04,Rain,Light Rain,110,2012-12-21 14:26:00
9:36 AM,51.8,51.8,100,29.29,1.8,East,28.8,41.4,0.04,Rain,Light Rain,100,2012-12-21 14:36:00
9:56 AM,52.0,51.1,97,29.26,1.8,ESE,27.6,42.6,0.05,Rain,Light Rain,120,2012-12-21 14:56:00
10:56 AM,54.0,53.1,97,29.18,1.2,ESE,27.6,39.1,0.08,Rain,Light Rain,110,2012-12-21 15:56:00
11:56 AM,55.9,54.0,93,29.09,2.0,SSE,39.1,59.8,0.08,Rain,Light Rain,160,2012-12-21 16:56:00
12:03 PM,55.4,53.6,94,29.11,3.0,South,25.3,48.3,0.00,,Overcast,190,2012-12-21 17:03:00
12:08 PM,55.4,53.6,94,29.11,5.0,SSW,20.7,35.7,0.00,,Overcast,200,2012-12-21 17:08:00
12:17 PM,53.6,51.8,94,29.12,5.0,SSW,13.8,-,0.00,,Overcast,200,2012-12-21 17:17:00
12:37 PM,53.6,51.8,94,29.12,5.0,SSW,15.0,-,0.00,,Overcast,200,2012-12-21 17:37:00
12:56 PM,53.1,50.0,89,29.12,5.0,SSW,20.7,26.5,0.00,,Mostly Cloudy,210,2012-12-21 17:56:00
1:56 PM,48.0,43.0,83,29.15,7.0,SW,24.2,35.7,N/A,,Mostly Cloudy,220,2012-12-21 18:56:00
2:56 PM,46.9,41.0,80,29.15,8.0,SW,19.6,26.5,N/A,,Overcast,220,2012-12-21 19:56:00
3:39 PM,46.4,37.4,71,29.16,10.0,WSW,16.1,33.4,N/A,,Mostly Cloudy,250,2012-12-21 20:39:00
3:56 PM,46.0,37.9,73,29.17,9.0,WSW,17.3,27.6,N/A,,Overcast,250,2012-12-21 20:56:00
4:45 PM,44.6,35.6,71,29.19,10.0,WSW,21.9,28.8,N/A,,Overcast,250,2012-12-21 21:45:00
4:56 PM,45.0,35.1,68,29.20,10.0,WSW,16.1,32.2,N/A,,Overcast,250,2012-12-21 21:56:00
5:37 PM,44.6,33.8,66,29.22,10.0,WSW,20.7,33.4,N/A,,Overcast,240,2012-12-21 22:37:00
5:47 PM,42.8,35.6,76,29.22,9.0,WSW,25.3,33.4,N/A,,Overcast,240,2012-12-21 22:47:00
5:56 PM,43.0,34.0,71,29.23,9.0,WSW,18.4,34.5,N/A,,Overcast,250,2012-12-21 22:56:00
6:56 PM,41.0,35.1,79,29.25,6.0,WSW,15.0,29.9,0.00,Rain,Light Rain,250,2012-12-21 23:56:00
7:54 PM,41.0,30.2,65,29.26,10.0,WSW,24.2,33.4,0.00,,Overcast,250,2012-12-22 00:54:00
7:56 PM,42.1,32.0,67,29.26,10.0,WSW,23.0,33.4,0.00,,Overcast,250,2012-12-22 00:56:00
8:56 PM,41.0,30.0,65,29.27,10.0,West,15.0,24.2,N/A,,Overcast,260,2012-12-22 01:56:00
9:56 PM,41.0,28.9,62,29.29,10.0,West,20.7,26.5,N/A,,Overcast,260,2012-12-22 02:56:00
10:56 PM,39.9,28.0,63,29.30,10.0,West,10.4,19.6,N/A,,Overcast,270,2012-12-22 03:56:00
11:56 PM,41.0,30.0,65,29.28,10.0,West,15.0,26.5,N/A,,Overcast,260,2012-12-22 04:56:00